Location: Palomar Mountain Lodge
(33.3110°N, 116.8495°W)
Time: 08:22:50
(UTC-07:00)

Abrixas - Pass Details

Date: 19 May 2017
Orbit: 321 x 328 km, 48.4° (Epoch: 15 May)

Event Time Altitude Azimuth Distance (km) Brightness Sun altitude
Rises 21:17:52 0° 314° (NW) 2,058 8.0 -17.5°
Reaches altitude 10° 21:19:53 10° 321° (NW) 1,225 6.3 -17.8°
Enters shadow 21:22:25 44° 27° (NNE) 452 2.9 -18.2°
